Tracking 22458 objects as of 4-Mar-2021
HD Live streaming from Space Station
objects crossing your sky now

COSMOS 1691 DEB

Track COSMOS 1691 DEB now!
10-day predictions


NORAD ID: 17168
Int'l Code: 1985-094S
Perigee: 1,236.6 km
Apogee: 1,272.4 km
Inclination: 82.6 °
Period: 110.4 minutes
Semi major axis: 7625 km
RCS: 0.0357 m2 (small)
Launch date: October 9, 1985
Source: Commonwealth of Independent States (former USSR) (CIS)
Launch site: PLESETSK MISSILE AND SPACE COMPLEX (PKMTR)

Note: This is SATELLITE DEBRIS
aabbcc
Your satellite tracking list
Your tracking list is empty




NASA's NSSDC Master Catalog

Two Line Element Set (TLE):
1 17168U 85094S   21062.73541855  .00001878  00000-0  58704-2 0  9998
2 17168  82.5837  66.0677 0023499 168.2291   8.6094 13.03768410650872
Source of the keplerian elements: AFSPC